LVJAM SA36-SABE

Flight info

Callsign LVJAM
Flight time N/A
Altitude 6999
Route T654 TORUL ILM
Aircraft BE58/L-SDE3/L

Departure

Time 2026-04-28 22:13
Airport Saladillo Airport (SA36)

Arrival

Time N/A
Airport Aeroparque Jorge Newbery (SABE)
Time Latitude Longitude Altitude Speed Heading
2026-04-28 21:17 -35.59928 -59.81632 151 ft 0 kts 47°
2026-04-28 21:20 -35.59927 -59.81632 151 ft 0 kts 47°
2026-04-28 21:20 -35.59927 -59.81631 151 ft 0 kts 47°
2026-04-28 21:25 -35.59927 -59.81630 151 ft 0 kts 47°
2026-04-28 21:26 -35.59926 -59.81630 151 ft 0 kts 47°
2026-04-28 21:29 -35.59926 -59.81629 151 ft 0 kts 47°
2026-04-28 21:31 -35.59925 -59.81629 151 ft 0 kts 47°
2026-04-28 21:33 -35.59925 -59.81628 151 ft 0 kts 47°
2026-04-28 21:37 -35.59924 -59.81627 151 ft 0 kts 47°
2026-04-28 21:41 -35.59924 -59.81626 151 ft 0 kts 47°
2026-04-28 21:42 -35.59923 -59.81626 151 ft 0 kts 47°
2026-04-28 21:45 -35.59923 -59.81625 151 ft 0 kts 47°
2026-04-28 21:48 -35.59922 -59.81625 151 ft 0 kts 47°
2026-04-28 21:49 -35.59922 -59.81624 151 ft 0 kts 47°
2026-04-28 21:53 -35.59921 -59.81623 151 ft 0 kts 47°
2026-04-28 21:57 -35.59921 -59.81622 151 ft 0 kts 47°
2026-04-28 21:58 -35.59920 -59.81622 151 ft 0 kts 47°
2026-04-28 22:01 -35.59920 -59.81621 151 ft 0 kts 47°
2026-04-28 22:03 -35.59919 -59.81621 151 ft 0 kts 47°
2026-04-28 22:05 -35.59919 -59.81620 151 ft 0 kts 47°
2026-04-28 22:08 -35.59916 -59.81617 151 ft 3 kts 34°
2026-04-28 22:09 -35.59877 -59.81663 151 ft 16 kts 310°
2026-04-28 22:09 -35.59770 -59.81803 151 ft 24 kts 314°
2026-04-28 22:09 -35.59703 -59.81929 151 ft 12 kts 281°
2026-04-28 22:09 -35.59674 -59.81996 151 ft 10 kts 279°
2026-04-28 22:10 -35.59698 -59.82017 151 ft 0 kts 180°
2026-04-28 22:12 -35.59703 -59.82017 151 ft 5 kts 180°
2026-04-28 22:12 -35.59909 -59.82013 151 ft 64 kts 180°
2026-04-28 22:12 -35.60565 -59.82017 173 ft 117 kts 178°
2026-04-28 22:12 -35.61452 -59.81999 456 ft 132 kts 178°
2026-04-28 22:13 -35.62348 -59.81966 1049 ft 121 kts 176°
2026-04-28 22:13 -35.63137 -59.81853 1672 ft 114 kts 171°
2026-04-28 22:13 -35.63924 -59.81356 1837 ft 147 kts 148°
2026-04-28 22:13 -35.64637 -59.80389 2105 ft 153 kts 117°
2026-04-28 22:14 -35.65016 -59.79107 2151 ft 173 kts 99°
2026-04-28 22:14 -35.65168 -59.77578 2177 ft 181 kts 87°
2026-04-28 22:14 -35.65061 -59.76070 2407 ft 177 kts 76°
2026-04-28 22:14 -35.64781 -59.74587 2559 ft 180 kts 69°
2026-04-28 22:15 -35.64388 -59.73098 2672 ft 184 kts 65°
2026-04-28 22:15 -35.63955 -59.71637 2901 ft 176 kts 66°
2026-04-28 22:15 -35.63453 -59.70311 3205 ft 176 kts 67°
2026-04-28 22:15 -35.62746 -59.68975 3137 ft 196 kts 59°
2026-04-28 22:16 -35.61890 -59.67627 3193 ft 200 kts 54°
2026-04-28 22:16 -35.60983 -59.66361 3447 ft 194 kts 50°
2026-04-28 22:16 -35.60068 -59.65141 3614 ft 196 kts 48°
2026-04-28 22:16 -35.59135 -59.63903 3682 ft 202 kts 47°
2026-04-28 22:17 -35.58187 -59.62631 3795 ft 203 kts 47°
2026-04-28 22:17 -35.57236 -59.61323 3971 ft 200 kts 46°
2026-04-28 22:17 -35.56327 -59.60055 4129 ft 199 kts 45°
2026-04-28 22:17 -35.55423 -59.58758 4258 ft 200 kts 45°
2026-04-28 22:18 -35.54535 -59.57451 4391 ft 199 kts 45°
2026-04-28 22:18 -35.53673 -59.56125 4546 ft 197 kts 46°
2026-04-28 22:18 -35.52860 -59.54774 4698 ft 196 kts 47°
2026-04-28 22:18 -35.52085 -59.53402 4828 ft 195 kts 48°
2026-04-28 22:19 -35.51332 -59.52011 4925 ft 196 kts 49°
2026-04-28 22:19 -35.50593 -59.50616 4972 ft 199 kts 50°
2026-04-28 22:19 -35.49820 -59.49176 4981 ft 205 kts 51°
2026-04-28 22:19 -35.49011 -59.47715 5012 ft 207 kts 50°
2026-04-28 22:20 -35.48192 -59.46273 5120 ft 204 kts 49°
2026-04-28 22:20 -35.47373 -59.44854 5235 ft 203 kts 49°
2026-04-28 22:20 -35.46560 -59.43434 5300 ft 204 kts 49°
2026-04-28 22:20 -35.45732 -59.42004 5343 ft 206 kts 49°
2026-04-28 22:21 -35.45180 -59.41059 5386 ft 206 kts 48°
2026-04-28 22:21 -35.44092 -59.39159 5483 ft 205 kts 50°
2026-04-28 22:21 -35.43307 -59.37696 5535 ft 206 kts 52°
2026-04-28 22:21 -35.42535 -59.36206 5576 ft 207 kts 52°
2026-04-28 22:22 -35.42013 -59.35221 5610 ft 206 kts 51°
2026-04-28 22:22 -35.41237 -59.33768 5750 ft 198 kts 49°
2026-04-28 22:22 -35.40490 -59.32387 5768 ft 196 kts 50°
2026-04-28 22:22 -35.39705 -59.30971 5480 ft 206 kts 50°
2026-04-28 22:23 -35.38881 -59.29510 5202 ft 212 kts 50°
2026-04-28 22:23 -35.38052 -59.28008 5139 ft 206 kts 51°
2026-04-28 22:23 -35.37306 -59.26569 5105 ft 201 kts 52°
2026-04-28 22:23 -35.36560 -59.25111 4952 ft 204 kts 52°
2026-04-28 22:24 -35.35800 -59.23633 4814 ft 203 kts 51°
2026-04-28 22:24 -35.35056 -59.22172 4716 ft 201 kts 51°
2026-04-28 22:24 -35.34317 -59.20746 4617 ft 200 kts 51°
2026-04-28 22:24 -35.33554 -59.19306 4516 ft 201 kts 51°
2026-04-28 22:25 -35.32774 -59.17871 4416 ft 202 kts 51°
2026-04-28 22:25 -35.31976 -59.16442 4316 ft 203 kts 51°
2026-04-28 22:25 -35.31176 -59.15047 4218 ft 203 kts 51°
2026-04-28 22:25 -35.30352 -59.13645 4118 ft 202 kts 51°
2026-04-28 22:26 -35.29519 -59.12264 4017 ft 201 kts 51°
2026-04-28 22:26 -35.29201 -59.11747 3979 ft 201 kts 51°
2026-04-28 22:26 -35.28356 -59.10397 3879 ft 201 kts 51°
2026-04-28 22:26 -35.27502 -59.09065 3913 ft 192 kts 50°
2026-04-28 22:27 -35.26711 -59.07814 4113 ft 179 kts 50°
2026-04-28 22:27 -35.26067 -59.06740 4324 ft 171 kts 49°
2026-04-28 22:29 -35.25845 -59.06349 4402 ft 167 kts 49°
2026-04-28 22:29 -35.25235 -59.05216 4629 ft 155 kts 49°
2026-04-28 22:29 -35.24697 -59.04115 4863 ft 145 kts 50°
2026-04-28 22:30 -35.24200 -59.03065 5066 ft 139 kts 51°
2026-04-28 22:30 -35.23727 -59.02080 5288 ft 132 kts 50°
2026-04-28 22:30 -35.23279 -59.01126 5507 ft 126 kts 50°
2026-04-28 22:30 -35.22865 -59.00217 5705 ft 120 kts 50°
2026-04-28 22:31 -35.22417 -58.99268 3498 ft 219 kts 58°
2026-04-28 22:31 -35.21568 -58.97847 4000 ft 179 kts 50°
2026-04-28 22:31 -35.21042 -58.96501 4239 ft 136 kts 81°